CZ-6A DEB

Satellite information

Favourite Embed

Satellite Type and Status

DEBRISIN ORBIT

Key statistics

Satellite CZ-6A DEB at a glance.

Uptime

1128

Days in orbit

Revolutions

≈ 14.3

Per day

Orbit

SSO

Sun Synchronous Orbit

Inclination

98.9

Latest

Satellite identification and parameters

Extended collection of information and parameters for CZ-6A DEB.

Object identification

Identified? True

Debris? True

Object name: CZ-6A DEB

International designator: 2022-151AHV

Object number (NORAD): 57578

Object ID (CCSDS): 57578

Country: PEOPLES REPUBLIC OF CHINA (PRC)

Current information (Y/N): Y

RCS size: SMALL

Orbital parameters

Period: 100.591 minutes

Inclination: 98.8704 deg

SMA: 7164.739 km

Apoapsis: 822.021 km

Periapsis: 751.187 km

RAAN: 25.0368 deg

Eccentricy: 0.00494325

Argument of periapsis: 179.6195 deg

Mean anomaly: 180.5034 deg

Mean motion: 14.31535875 rev/day

Mean motion (dot): 0.00004176 rev/day2

B* drag term: 0.0015660935 1/REarth

Two-line elements (TLE)

Creation date: Dec. 8, 2025, 3:46 a.m.

Reference frame: TEME

Reference center: EARTH

Epoch: Dec. 7, 2025, 8:38 p.m. UTC

TLE line 0: 0 CZ-6A DEB

TLE line 1: 1 57578U 22151AHV 25341.85987875 .00004176 00000-0 15661-2 0 9994

TLE line 2: 2 57578 98.8704 25.0368 0049432 179.6195 180.5034 14.31535875136748

Live tracking on map

Real-time ground track for satellite CZ-6A DEB.

In-orbit conjunctions

A list of the most updated potential collisions computed for object CZ-6A DEB.

Target Orbit TCA Probability of collision Miss distance Type
METEOR 2-5 DEB LEO 2025-08-11 08:56:36 0.0001042714 163.0 (m) DEBRIS
SL-8 R/B LEO 2025-08-08 02:28:10 0.000643326 169.0 (m) ROCKET BODY
DMSP 5D-2 F8 DEB SSO 2025-06-22 03:42:51 0.0001220119 135.0 (m) DEBRIS
FENGYUN 1C DEB SSO 2024-07-06 05:39:13 0.0001418294 251.0 (m) DEBRIS

Associated space launch

Chinese satellite reported for atmospheric/ocean/environmental/spatial parameter research purposes, details TBD.

CZ-6A DEB was lifted into orbit during the mission ‘Long March 6A | Yunhai 3’, on board a Long March 6A space rocket.

The launch took place on Nov. 11, 2022, 10:52 p.m. from Launch Complex 9A.

For more information about the launch, click the button.

Launch to space Long March 6A | Yunhai 3
Long March 6A | Yunhai 3

Agency: N/A

Status: Launch Successful

Launch date: Nov. 11, 2022, 10:52 p.m. UTC

Rocket: Long March 6A

Launch pad: Launch Complex 9A

Location: Taiyuan Satellite Launch Center, People's Republic of China

...

Latest news about this satellite

There are no fresh news available about this satellite. Check back as we update our databases every day.


Newsletter sign-up

Weekly statistics, charts and insights to help you stay on top of the space industry.